NRT457 KIAH-KMSY

Flight info

Callsign NRT457
Flight time 0h 45m
Altitude 21000
Route GUMBY3 GUSTI AWDAD AWDAD1
Aircraft B738/M-SDE2E3FGHIRWXY/LB1

Departure

Time 2026-05-06 02:06
Airport George Bush Intercontinental Airport (KIAH)

Arrival

Time 2026-05-06 02:51
Airport Louis Armstrong New Orleans International Airport (KMSY)
Time Latitude Longitude Altitude Speed Heading
2026-05-06 01:41 29.98931 -95.33804 101 ft 0 kts 279°
2026-05-06 01:58 29.98931 -95.33800 101 ft 2 kts 279°
2026-05-06 01:59 29.98927 -95.33784 101 ft 2 kts 294°
2026-05-06 01:59 29.98919 -95.33769 101 ft 2 kts 306°
2026-05-06 01:59 29.98910 -95.33756 101 ft 2 kts 319°
2026-05-06 01:59 29.98897 -95.33746 101 ft 2 kts 332°
2026-05-06 02:00 29.98883 -95.33740 101 ft 2 kts 345°
2026-05-06 02:00 29.98874 -95.33738 101 ft 0 kts 354°
2026-05-06 02:00 29.98868 -95.33737 101 ft 0 kts 355°
2026-05-06 02:01 29.98869 -95.33737 101 ft 0 kts 355°
2026-05-06 02:02 29.98914 -95.33732 101 ft 14 kts
2026-05-06 02:02 29.99036 -95.33718 101 ft 17 kts 354°
2026-05-06 02:02 29.99089 -95.33839 101 ft 20 kts 269°
2026-05-06 02:02 29.99087 -95.33997 101 ft 19 kts 269°
2026-05-06 02:03 29.99086 -95.34148 101 ft 18 kts 271°
2026-05-06 02:03 29.99087 -95.34293 101 ft 18 kts 270°
2026-05-06 02:03 29.99088 -95.34464 101 ft 24 kts 271°
2026-05-06 02:03 29.99087 -95.34672 101 ft 25 kts 270°
2026-05-06 02:04 29.99085 -95.34879 100 ft 25 kts 269°
2026-05-06 02:04 29.99084 -95.35092 98 ft 27 kts 272°
2026-05-06 02:04 29.99085 -95.35308 99 ft 23 kts 269°
2026-05-06 02:04 29.99070 -95.35456 99 ft 16 kts 228°
2026-05-06 02:05 29.98953 -95.35488 98 ft 17 kts 194°
2026-05-06 02:05 29.98868 -95.35594 98 ft 22 kts 241°
2026-05-06 02:05 29.98796 -95.35740 98 ft 19 kts 221°
2026-05-06 02:05 29.98660 -95.35711 98 ft 35 kts 152°
2026-05-06 02:06 29.98192 -95.35424 98 ft 111 kts 152°
2026-05-06 02:06 29.97312 -95.34892 98 ft 170 kts 153°
2026-05-06 02:06 29.96233 -95.34188 672 ft 183 kts 144°
2026-05-06 02:06 29.95371 -95.33083 1479 ft 195 kts 132°
2026-05-06 02:07 29.94690 -95.31646 2132 ft 214 kts 111°
2026-05-06 02:07 29.94434 -95.29892 2664 ft 233 kts 102°
2026-05-06 02:07 29.94230 -95.27990 3215 ft 247 kts 103°
2026-05-06 02:07 29.93951 -95.25995 3816 ft 255 kts 104°
2026-05-06 02:08 29.93740 -95.23965 3993 ft 260 kts 97°
2026-05-06 02:08 29.93720 -95.21781 4013 ft 275 kts 93°
2026-05-06 02:08 29.93779 -95.19572 4015 ft 277 kts 92°
2026-05-06 02:08 29.93842 -95.17353 4015 ft 277 kts 92°
2026-05-06 02:09 29.93888 -95.15138 4016 ft 278 kts 93°
2026-05-06 02:09 29.93923 -95.12901 4020 ft 277 kts 93°
2026-05-06 02:09 29.93952 -95.10684 4105 ft 288 kts 93°
2026-05-06 02:09 29.93976 -95.08379 4828 ft 291 kts 94°
2026-05-06 02:10 29.93856 -95.05998 5390 ft 295 kts 99°
2026-05-06 02:10 29.93631 -95.03695 6312 ft 292 kts 101°
2026-05-06 02:10 29.93372 -95.01402 7041 ft 295 kts 101°
2026-05-06 02:10 29.93103 -94.99026 7794 ft 299 kts 101°
2026-05-06 02:11 29.92847 -94.96663 8515 ft 304 kts 100°
2026-05-06 02:11 29.92596 -94.94243 9266 ft 308 kts 99°
2026-05-06 02:11 29.92350 -94.91797 10042 ft 311 kts 99°
2026-05-06 02:11 29.92094 -94.89256 10595 ft 325 kts 99°
2026-05-06 02:12 29.91832 -94.86653 11310 ft 331 kts 99°
2026-05-06 02:12 29.91566 -94.84017 12034 ft 337 kts 99°
2026-05-06 02:12 29.91296 -94.81338 12797 ft 341 kts 98°
2026-05-06 02:12 29.91017 -94.78600 13458 ft 350 kts 98°
2026-05-06 02:13 29.90730 -94.75787 14223 ft 354 kts 98°
2026-05-06 02:13 29.90441 -94.72959 14949 ft 361 kts 98°
2026-05-06 02:13 29.89853 -94.67223 16417 ft 371 kts 98°
2026-05-06 02:14 29.89550 -94.64278 17152 ft 375 kts 98°
2026-05-06 02:14 29.89243 -94.61286 17834 ft 380 kts 98°
2026-05-06 02:14 29.88927 -94.58215 18442 ft 387 kts 98°
2026-05-06 02:14 29.88609 -94.55128 19100 ft 391 kts 98°
2026-05-06 02:15 29.88286 -94.52000 19681 ft 398 kts 98°
2026-05-06 02:15 29.87956 -94.48830 20266 ft 404 kts 98°
2026-05-06 02:15 29.87620 -94.45612 20833 ft 408 kts 98°
2026-05-06 02:15 29.87274 -94.42326 20878 ft 412 kts 98°
2026-05-06 02:16 29.86932 -94.39057 20873 ft 417 kts 98°
2026-05-06 02:16 29.86569 -94.35632 20879 ft 436 kts 98°
2026-05-06 02:16 29.86195 -94.32104 20879 ft 453 kts 98°
2026-05-06 02:16 29.85904 -94.28480 20872 ft 458 kts 95°
2026-05-06 02:17 29.85749 -94.24847 20873 ft 459 kts 92°
2026-05-06 02:17 29.85666 -94.21173 20872 ft 457 kts 92°
2026-05-06 02:17 29.85610 -94.17516 20877 ft 459 kts 91°
2026-05-06 02:17 29.85549 -94.13855 20877 ft 458 kts 92°
2026-05-06 02:18 29.85475 -94.10169 20878 ft 458 kts 92°
2026-05-06 02:18 29.85400 -94.06522 20878 ft 458 kts 91°
2026-05-06 02:18 29.85479 -94.02879 20882 ft 458 kts 86°
2026-05-06 02:18 29.85754 -93.99214 20882 ft 457 kts 83°
2026-05-06 02:19 29.86127 -93.95596 20883 ft 458 kts 82°
2026-05-06 02:19 29.86550 -93.91955 20882 ft 457 kts 82°
2026-05-06 02:19 29.86978 -93.88349 20883 ft 457 kts 81°
2026-05-06 02:19 29.87407 -93.84691 20882 ft 458 kts 81°
2026-05-06 02:20 29.88226 -93.77447 20884 ft 457 kts 82°
2026-05-06 02:20 29.88622 -93.73826 20884 ft 457 kts 82°
2026-05-06 02:20 29.89017 -93.70163 20890 ft 456 kts 82°
2026-05-06 02:21 29.89399 -93.66577 20887 ft 456 kts 82°
2026-05-06 02:21 29.89781 -93.62950 20883 ft 458 kts 82°
2026-05-06 02:21 29.90158 -93.59328 20879 ft 456 kts 82°
2026-05-06 02:21 29.90537 -93.55677 20875 ft 457 kts 82°
2026-05-06 02:22 29.90914 -93.52037 20875 ft 456 kts 82°
2026-05-06 02:22 29.91289 -93.48408 20878 ft 457 kts 82°
2026-05-06 02:22 29.91664 -93.44778 20876 ft 456 kts 82°
2026-05-06 02:22 29.92034 -93.41182 20873 ft 455 kts 82°
2026-05-06 02:23 29.92406 -93.37558 20883 ft 456 kts 81°
2026-05-06 02:23 29.92778 -93.33932 20885 ft 455 kts 82°
2026-05-06 02:23 29.93146 -93.30319 20882 ft 456 kts 82°
2026-05-06 02:23 29.93515 -93.26696 20881 ft 456 kts 82°
2026-05-06 02:24 29.93881 -93.23076 20878 ft 454 kts 82°
2026-05-06 02:24 29.94250 -93.19450 20883 ft 455 kts 82°
2026-05-06 02:24 29.94617 -93.15839 20885 ft 454 kts 82°
2026-05-06 02:24 29.94979 -93.12237 20889 ft 454 kts 82°
2026-05-06 02:25 29.95342 -93.08629 20888 ft 455 kts 82°
2026-05-06 02:25 29.95705 -93.05002 20894 ft 455 kts 82°
2026-05-06 02:25 29.96064 -93.01394 20895 ft 456 kts 82°
2026-05-06 02:25 29.96421 -92.97785 20901 ft 455 kts 82°
2026-05-06 02:26 29.96782 -92.94148 20907 ft 454 kts 82°
2026-05-06 02:26 29.97139 -92.90540 20906 ft 456 kts 82°
2026-05-06 02:26 29.97476 -92.86912 20905 ft 457 kts 83°
2026-05-06 02:26 29.97782 -92.83256 20907 ft 457 kts 83°
2026-05-06 02:27 29.98073 -92.79578 20907 ft 455 kts 83°
2026-05-06 02:27 29.98354 -92.75954 20906 ft 456 kts 83°
2026-05-06 02:27 29.98637 -92.72323 20908 ft 458 kts 83°
2026-05-06 02:27 29.98920 -92.68699 20904 ft 455 kts 83°
2026-05-06 02:28 29.99207 -92.65046 20904 ft 455 kts 83°
2026-05-06 02:28 29.99492 -92.61432 20904 ft 455 kts 83°
2026-05-06 02:28 29.99780 -92.57777 20907 ft 455 kts 83°
2026-05-06 02:28 30.00065 -92.54179 20902 ft 455 kts 83°
2026-05-06 02:29 30.00354 -92.50512 20902 ft 455 kts 83°
2026-05-06 02:29 30.00635 -92.46927 20905 ft 454 kts 83°
2026-05-06 02:29 30.00921 -92.43294 20905 ft 455 kts 83°
2026-05-06 02:29 30.01202 -92.39687 20905 ft 455 kts 83°
2026-05-06 02:30 30.01485 -92.36036 20900 ft 455 kts 83°
2026-05-06 02:30 30.01766 -92.32383 20903 ft 455 kts 84°
2026-05-06 02:30 30.02041 -92.28790 20902 ft 455 kts 83°
2026-05-06 02:30 30.02323 -92.25142 20899 ft 455 kts 83°
2026-05-06 02:31 30.02600 -92.21523 20901 ft 455 kts 83°
2026-05-06 02:31 30.02876 -92.17896 20904 ft 455 kts 83°
2026-05-06 02:31 30.03152 -92.14274 20907 ft 455 kts 83°
2026-05-06 02:31 30.03428 -92.10653 20908 ft 455 kts 83°
2026-05-06 02:32 30.03707 -92.06991 20908 ft 454 kts 83°
2026-05-06 02:32 30.03978 -92.03403 20906 ft 455 kts 83°
2026-05-06 02:32 30.04251 -91.99764 20906 ft 454 kts 83°
2026-05-06 02:32 30.04524 -91.96112 20907 ft 454 kts 83°
2026-05-06 02:33 30.04791 -91.92506 20910 ft 455 kts 83°
2026-05-06 02:33 30.04969 -91.90102 20911 ft 454 kts 83°
2026-05-06 02:34 30.05857 -91.77974 20912 ft 451 kts 83°
2026-05-06 02:34 30.06111 -91.74470 20906 ft 434 kts 83°
2026-05-06 02:34 30.06355 -91.71078 20914 ft 417 kts 83°
2026-05-06 02:34 30.06593 -91.67785 20904 ft 405 kts 83°
2026-05-06 02:35 30.06824 -91.64576 20677 ft 397 kts 83°
2026-05-06 02:35 30.07051 -91.61446 20277 ft 396 kts 83°
2026-05-06 02:35 30.07281 -91.58269 19728 ft 399 kts 83°
2026-05-06 02:35 30.07512 -91.55060 19217 ft 399 kts 83°
2026-05-06 02:36 30.07738 -91.51909 18745 ft 398 kts 83°
2026-05-06 02:36 30.07964 -91.48743 18263 ft 397 kts 83°
2026-05-06 02:36 30.08191 -91.45557 17775 ft 396 kts 83°
2026-05-06 02:36 30.08414 -91.42388 17272 ft 394 kts 84°
2026-05-06 02:37 30.08631 -91.39273 16797 ft 392 kts 84°
2026-05-06 02:37 30.08847 -91.36139 16312 ft 390 kts 84°
2026-05-06 02:37 30.09059 -91.33051 15833 ft 388 kts 84°
2026-05-06 02:37 30.09273 -91.29977 15353 ft 385 kts 84°
2026-05-06 02:38 30.09489 -91.26897 14878 ft 383 kts 84°
2026-05-06 02:38 30.09700 -91.23868 14393 ft 380 kts 84°
2026-05-06 02:38 30.09910 -91.20833 13922 ft 377 kts 84°
2026-05-06 02:38 30.10118 -91.17827 13454 ft 375 kts 85°
2026-05-06 02:39 30.10324 -91.14844 12963 ft 372 kts 85°
2026-05-06 02:39 30.10528 -91.11884 12480 ft 369 kts 85°
2026-05-06 02:39 30.10726 -91.08970 12025 ft 365 kts 85°
2026-05-06 02:39 30.10922 -91.06062 11562 ft 362 kts 85°
2026-05-06 02:40 30.11113 -91.03200 11092 ft 359 kts 85°
2026-05-06 02:40 30.11308 -91.00307 10630 ft 355 kts 85°
2026-05-06 02:40 30.11499 -90.97487 10203 ft 350 kts 86°
2026-05-06 02:40 30.11596 -90.94727 9854 ft 343 kts 91°
2026-05-06 02:41 30.11477 -90.92020 9643 ft 331 kts 95°
2026-05-06 02:41 30.11270 -90.89397 9281 ft 326 kts 97°
2026-05-06 02:41 30.11042 -90.86845 8932 ft 316 kts 97°
2026-05-06 02:41 30.10822 -90.84380 8594 ft 303 kts 97°
2026-05-06 02:42 30.10619 -90.82001 8219 ft 293 kts 97°
2026-05-06 02:42 30.10426 -90.79677 7901 ft 290 kts 97°
2026-05-06 02:42 30.10242 -90.77395 7571 ft 284 kts 97°
2026-05-06 02:42 30.10063 -90.75154 7216 ft 279 kts 98°
2026-05-06 02:43 30.09886 -90.72914 6852 ft 275 kts 98°
2026-05-06 02:43 30.09709 -90.70757 6494 ft 271 kts 99°
2026-05-06 02:43 30.09374 -90.68654 6135 ft 265 kts 107°
2026-05-06 02:43 30.08901 -90.66608 5761 ft 262 kts 109°
2026-05-06 02:44 30.08399 -90.64603 5400 ft 259 kts 110°
2026-05-06 02:44 30.07904 -90.62618 5042 ft 255 kts 109°
2026-05-06 02:44 30.07432 -90.60670 4680 ft 249 kts 109°
2026-05-06 02:44 30.06981 -90.58777 4315 ft 244 kts 109°
2026-05-06 02:45 30.06537 -90.56905 4020 ft 236 kts 109°
2026-05-06 02:45 30.06123 -90.55150 3981 ft 220 kts 109°
2026-05-06 02:45 30.05715 -90.53440 3991 ft 220 kts 110°
2026-05-06 02:45 30.05291 -90.51762 3967 ft 220 kts 110°
2026-05-06 02:46 30.04913 -90.50059 3651 ft 208 kts 107°
2026-05-06 02:46 30.04583 -90.48508 3282 ft 189 kts 109°
2026-05-06 02:46 30.04260 -90.47151 3091 ft 166 kts 111°
2026-05-06 02:46 30.03963 -90.45923 2877 ft 153 kts 112°
2026-05-06 02:47 30.03674 -90.44741 2716 ft 150 kts 112°
2026-05-06 02:47 30.03394 -90.43594 2524 ft 150 kts 111°
2026-05-06 02:47 30.03113 -90.42434 2337 ft 148 kts 112°
2026-05-06 02:47 30.02841 -90.41303 2152 ft 146 kts 112°
2026-05-06 02:48 30.02567 -90.40163 1965 ft 146 kts 112°
2026-05-06 02:48 30.02298 -90.39049 1791 ft 145 kts 112°
2026-05-06 02:48 30.02030 -90.37940 1606 ft 143 kts 112°
2026-05-06 02:48 30.01763 -90.36834 1434 ft 142 kts 112°
2026-05-06 02:49 30.01499 -90.35746 1257 ft 142 kts 111°
2026-05-06 02:49 30.01232 -90.34643 1082 ft 141 kts 111°
2026-05-06 02:49 30.00967 -90.33550 910 ft 141 kts 111°
2026-05-06 02:49 30.00712 -90.32497 742 ft 141 kts 110°
2026-05-06 02:50 30.00648 -90.32236 697 ft 141 kts 110°
2026-05-06 02:50 30.00388 -90.31146 517 ft 141 kts 111°
2026-05-06 02:50 30.00120 -90.30074 366 ft 140 kts 109°
2026-05-06 02:50 29.99864 -90.28976 182 ft 142 kts 109°
2026-05-06 02:51 29.99598 -90.27887 32 ft 137 kts 108°
2026-05-06 02:51 29.99346 -90.26892 12 ft 113 kts 107°
2026-05-06 02:51 29.99199 -90.26273 12 ft 62 kts 107°
2026-05-06 02:51 29.99107 -90.25862 12 ft 42 kts 106°
2026-05-06 02:52 29.99129 -90.25641 12 ft 25 kts 24°
2026-05-06 02:52 29.99268 -90.25600 12 ft 5 kts 340°
2026-05-06 02:52 29.99300 -90.25626 12 ft 4 kts 311°
2026-05-06 02:52 29.99310 -90.25638 12 ft 0 kts 316°